Regional Weather Roundup
Issued by NWS

Home | Current Version | Previous Version | Graphics & Text | Print | Product List | Glossary On
Versions: 1 2 3 4 5 6 7 8 9 10 11 12 13 14 15 16 17 18 19 20 21 22 23 24 25 26 27 28 29 30 31 32 33 34 35 36 37 38 39 40 41 42 43 44 45 46 47 48 49 50
000
ASUS45 KCYS 201010
RWRWY

WYOMING REGIONAL WEATHER ROUNDUP
NATIONAL WEATHER SERVICE CHEYENNE WY
300 AM MST SAT DEC 20 2014

NOTE:  "FAIR" INDICATES FEW OR NO CLOUDS BELOW 12,000 FEET
WITH NO SIGNIFICANT WEATHER AND/OR OBSTRUCTIONS TO VISIBILITY.

WYZ001-201100-
YELLOWSTONE NATIONAL PARK

CITY           SKY/WX    TMP DP  RH WIND       PRES   REMARKS
LK YELLOWSTONE   N/A     25  20  81 VRB6      30.02S WCI  18
W YELLOWSTONE  NOT AVBL

$$
WYZ002>013-054>058-071-098>099-201100-
NORTHERN WYOMING

CITY           SKY/WX    TMP DP  RH WIND       PRES   REMARKS
JACKSON        CLOUDY    28  28 100 CALM      30.05R
CODY           FAIR      41  21  45 W13G29    29.92S
GREYBULL       CLOUDY    15  13  91 NW6       29.98R WCI   6
WORLAND        FAIR      10   6  84 CALM      29.96S
SHERIDAN       CLOUDY    29  22  75 CALM      29.90R
BUFFALO        MOCLDY    30  21  69 W5        29.91R WCI  25
GILLETTE       CLOUDY    36  24  62 E5        29.89F WCI  32
HULETT           N/A    N/A N/A N/A MISG        N/A
NEWCASTLE      FAIR      23  19  86 N5        29.94F WCI  17

$$
WYZ014>020-022>026-101>103-201100-
CENTRAL WYOMING

CITY           SKY/WX    TMP DP  RH WIND       PRES   REMARKS
BIG PINEY      CLOUDY    24  20  84 CALM      30.06R
PINEDALE       CLOUDY    23  23 100 CALM      30.07R
DUBOIS         NOT AVBL
LANDER         FAIR      15  10  80 SW3       29.96S
RIVERTON       FAIR      12   6  77 CALM      29.97S
CASPER         FAIR      32  23  69 SW22      29.96S WCI  19
DOUGLAS        FAIR      34  23  64 W15       29.94S WCI  24

$$
WYZ021-027>030-104>119-201100-
SOUTHERN WYOMING

CITY           SKY/WX    TMP DP  RH WIND       PRES   REMARKS
EVANSTON       CLOUDY    30  25  81 SW12      30.09S WCI  20
KEMMERER       CLOUDY    28  27  93 SW5       30.07S WCI  23
FORT BRIDGER   CLOUDY    32  25  76 W14       30.11R WCI  22
ROCK SPRINGS   CLOUDY    28  21  75 SW9       30.07F WCI  19
DIXON          LGT SNOW  28  25  89 S7        30.16F WCI  21
RAWLINS        FAIR      28  21  75 SW21      30.03F WCI  15
SARATOGA       CLOUDY    28  21  74 MISG      30.08S
LARAMIE        FAIR      26  15  63 SW15      30.00F WCI  14
CHEYENNE       FAIR      34  17  50 VRB7      29.96S WCI  28
TORRINGTON     FAIR     N/A N/A N/A W3        29.95S
PINE BLUFFS    FAIR      25  19  80 CALM      30.00R

$$


USA.gov is the U.S. government's official web portal to all federal, state and local government web resources and services.